THOR ABLESTAR DEB, 2432

Orbit data source: Space-Track

THOR ABLESTAR DEB, 2432 is space debris in LEO originally from a launch on Thu, 05 Dec 1963 UTC launched from the Air Force Western Test Range (AFWTR). Debris objects in space refer to the collection of defunct objects orbiting the Earth. Examples of debris include non-operational satellites, rocket bodies, and fragments generated from explosions, collisions, or faulty payload assembly.

Loading next visibility...
THOR ABLESTAR DEB details
Identifier
2432, 1963-049G
Orbit
LEO
Last TLE update17 hours ago
Origin
Flag of USUSN NAVAIR (US)
ManufacturerUnknown
MissionSpacecraft
Bus & MotorUnknown
MassUnknown
Launch date (UTC)
1963-12-05 (61 years ago)
Launch vehicleUnknown
Launch site
Air Force Western Test Range (AFWTR)
Object type
Payload
Rocket body
Debris
Shape & HBRUnknown
Radar Cross SectionMedium (>0.1 m² and <1 m²)

Expand to show TLE details & history

TLE from 17 hours ago
0 THOR ABLESTAR DEB
1 02432U 63049G   24355.79472907  .00000151  00000-0  22929-3 0  9991
2 02432  89.9175  75.1828 0033892   2.9857 122.5529 13.48138394999477
Epoch: 2024-12-20T19:04Z
Definitive object data (Epoch: 2024-12-20T19:04:24.591Z)
Latitude54.22853°
Longitude-120.88871°
Altitude1,101.78 km
Speed7.3 km/s
True Right ascension17h 00m 16s
True Declination54° 04' 22"
Sunlit
Object was in daylight at TLE epoch
Visualization TLE readout
Latitude23.15451°
Longitude59.25434°
Altitude1,058.56 km
Speed7.336 km/s
Apparent Right ascension02h 46m 37s
Apparent Declination-7° 30' 37"
Sunlit
Object is in full shadow
Visualization observer readout
Local Sidereal Time11:24:31
Azimuth291.678° WNW
Elevation-34.563°
Doppler factor1
Orbital elements
Apogee altitude1,101.432 km
Perigee altitude1,050.904 km
Semi-major axis7,454.305 km
Eccentricity0.0033892
Inclination89.9175°
RAAN75.1828°
Arg. of periapsis2.9857°
True anomaly122.87951°
Mean anomaly122.5529°
Eccentric anomaly122.71628°
Mean motion3.37235 °/min
BSTAR0.00022929
Orbital period106.75 mins
Loading maneuver chart data...
Loading historical data...
Loading historical data...
Loading historical data...
Loading historical data...
Loading historical data...
Loading historical data...
Loading historical data...

THOR ABLESTAR DEB Visibility forecast

Observer location: undefined°, undefined

Span
Click to sort rows by Start time (UTC) header in descending order
Start Az.
Max El. time (UTC)
Max El. Az.
Max El.
End time (UTC)
End Az.
8 mins2024-12-21 16:26:44.358Z37.947° NE2024-12-21 16:30:44.358Z77.788° E19.135°2024-12-21 16:34:44.358Z118.367° SE
11 mins2024-12-21 18:12:44.358Z353.386° N2024-12-21 18:17:44.358Z287.296° WNW42.049°2024-12-21 18:23:44.358Z198.139° SSW
7 mins2024-12-22 04:27:44.358Z102.453° ESE2024-12-22 04:30:44.358Z69.21° E18.778°2024-12-22 04:34:44.358Z30.435° NE
11 mins2024-12-22 06:11:44.358Z192.793° SSW2024-12-22 06:16:44.358Z285.14° WNW41.816°2024-12-22 06:22:44.358Z351.403° N
|